Powrót do katalogu

FALCON 9 R/B

AktywnyHEO
NORAD 58964·ROCKET BODY·🇺🇸 United States

Wystrzelony Feb 15, 2024 z Cape Canaveral Space Force Station

Loading…

Następne Przeloty (najbliższe 24 godziny)

TLE

NieaktualneSource: Space-Track

Epoka: Feb 15, 2024, 06:40 UTC

1 58964U 24030B   24046.27792824 -.00014702  00000-0  00000-0 0  9993
2 58964  28.5100  65.0800 9704700 239.9600   5.0000  0.08200507    02

Śledź FALCON 9 R/B w czasie rzeczywistym z AllMySat

Download on the App Store